Time,TemperatureF,DewpointF,PressureIn,WindDirection,WindDirectionDegrees,WindSpeedMPH,WindSpeedGustMPH,Humidity,HourlyPrecipIn,Conditions,Clouds,dailyrainin,SoftwareType,DateUTC
2013-02-12 06:19:00,47.5,45.0,29.32,NNE,28,7.2,7.2,91,0.00,,---,0.00,VWS V13.01,2013-02-12 12:19:00,
2013-02-12 06:24:00,47.5,45.3,29.32,North,7,6.3,6.3,92,0.08,,---,0.00,VWS V13.01,2013-02-12 12:24:00,
2013-02-12 06:29:00,47.5,45.3,29.32,NE,50,5.4,5.8,92,0.08,,---,0.00,VWS V13.01,2013-02-12 12:29:00,
2013-02-12 06:34:00,47.5,45.3,29.32,ENE,72,4.9,4.9,92,0.08,,---,0.00,VWS V13.01,2013-02-12 12:34:00,
2013-02-12 06:39:00,47.7,45.7,29.32,NW,320,0.0,0.0,93,0.08,,---,0.00,VWS V13.01,2013-02-12 12:39:00,
2013-02-12 06:44:00,47.7,45.7,29.32,NE,39,2.7,5.8,93,0.08,,---,0.00,VWS V13.01,2013-02-12 12:44:00,
2013-02-12 06:49:00,47.7,45.7,29.32,East,93,5.8,6.3,93,0.08,,---,0.00,VWS V13.01,2013-02-12 12:49:00,
2013-02-12 06:54:00,47.7,45.7,29.29,ENE,78,3.6,3.6,93,0.08,,---,0.00,VWS V13.01,2013-02-12 12:54:00,
2013-02-12 06:59:00,47.7,45.7,29.29,NNE,21,5.4,5.4,93,0.12,,---,0.04,VWS V13.01,2013-02-12 12:59:00,
2013-02-12 07:04:00,47.7,45.7,29.29,NNE,21,5.4,5.4,93,0.12,,---,0.04,VWS V13.01,2013-02-12 13:04:00,
2013-02-12 07:09:00,47.7,45.7,29.29,NNE,21,5.4,5.4,93,0.12,,---,0.04,VWS V13.01,2013-02-12 13:09:00,
2013-02-12 07:14:00,47.7,45.7,29.29,NNE,21,5.4,5.4,93,0.12,,---,0.04,VWS V13.01,2013-02-12 13:14:00,
2013-02-12 07:19:00,47.7,45.7,29.32,NNE,21,5.4,5.4,93,0.16,,---,0.08,VWS V13.01,2013-02-12 13:19:00,
2013-02-12 07:24:00,47.7,45.7,29.32,NNE,21,5.4,5.4,93,0.08,,---,0.08,VWS V13.01,2013-02-12 13:24:00,
2013-02-12 07:29:00,47.7,45.7,29.29,NNE,32,0.0,0.0,93,0.08,,---,0.08,VWS V13.01,2013-02-12 13:29:00,
2013-02-12 07:34:00,47.7,45.7,29.29,NNE,32,0.0,0.0,93,0.08,,---,0.08,VWS V13.01,2013-02-12 13:34:00,
2013-02-12 07:39:00,47.7,45.7,29.32,NNE,32,0.0,0.0,93,0.08,,---,0.08,VWS V13.01,2013-02-12 13:39:00,
2013-02-12 07:44:00,47.7,45.7,29.32,NNE,32,0.0,0.0,93,0.08,,---,0.08,VWS V13.01,2013-02-12 13:44:00,
2013-02-12 07:49:00,47.7,45.7,29.32,NNE,32,0.0,0.0,93,0.08,,---,0.08,VWS V13.01,2013-02-12 13:49:00,
2013-02-12 07:54:00,47.7,45.7,29.29,NNE,32,0.0,0.0,93,0.08,,---,0.08,VWS V13.01,2013-02-12 13:54:00,
2013-02-12 07:59:00,47.7,45.7,29.29,NNE,32,0.0,0.0,93,0.04,,---,0.08,VWS V13.01,2013-02-12 13:59:00,
2013-02-12 08:04:00,47.7,45.7,29.29,NNE,32,0.0,0.0,93,0.04,,---,0.08,VWS V13.01,2013-02-12 14:04:00,
2013-02-12 08:09:00,47.7,45.7,29.29,NNE,32,0.0,0.0,93,0.04,,---,0.08,VWS V13.01,2013-02-12 14:09:00,
2013-02-12 08:14:00,47.7,45.7,29.29,NNE,32,0.0,0.0,93,0.04,,---,0.08,VWS V13.01,2013-02-12 14:14:00,
2013-02-12 08:19:00,47.7,45.7,29.29,NE,54,3.6,3.6,93,0.00,,---,0.08,VWS V13.01,2013-02-12 14:19:00,
2013-02-12 08:24:00,47.7,45.7,29.29,NE,52,4.0,4.0,93,0.00,,---,0.08,VWS V13.01,2013-02-12 14:24:00,
2013-02-12 08:29:00,47.7,45.7,29.29,NE,52,4.0,4.0,93,0.00,,---,0.08,VWS V13.01,2013-02-12 14:29:00,
2013-02-12 08:34:00,47.7,45.7,29.29,NE,52,4.0,4.0,93,0.00,,---,0.08,VWS V13.01,2013-02-12 14:34:00,
2013-02-12 08:39:00,47.7,45.7,29.29,NE,52,4.0,4.0,93,0.00,,---,0.08,VWS V13.01,2013-02-12 14:39:00,
2013-02-12 08:44:00,47.7,45.7,29.29,NNE,25,4.9,4.9,93,0.00,,---,0.08,VWS V13.01,2013-02-12 14:44:00,
2013-02-12 08:49:00,47.7,45.7,29.29,NNE,25,4.9,4.9,93,0.00,,---,0.08,VWS V13.01,2013-02-12 14:49:00,
2013-02-12 08:54:00,47.7,45.7,29.29,NNE,25,4.9,4.9,93,0.00,,---,0.08,VWS V13.01,2013-02-12 14:54:00,
2013-02-12 08:59:00,47.7,45.7,29.29,NNE,25,4.9,4.9,93,0.00,,---,0.08,VWS V13.01,2013-02-12 14:59:00,
2013-02-12 09:04:00,48.4,46.7,29.29,NNE,13,3.1,3.1,94,0.00,,---,0.08,VWS V13.01,2013-02-12 15:04:00,
2013-02-12 09:09:00,48.4,46.7,29.29,NNE,13,3.1,3.1,94,0.00,,---,0.08,VWS V13.01,2013-02-12 15:09:00,
2013-02-12 09:14:00,48.4,46.7,29.29,NNE,13,3.1,3.1,94,0.00,,---,0.08,VWS V13.01,2013-02-12 15:14:00,
2013-02-12 09:19:00,48.4,46.7,29.29,NNE,13,3.1,3.1,94,0.00,,---,0.08,VWS V13.01,2013-02-12 15:19:00,
2013-02-12 09:24:00,48.4,46.7,29.29,NNE,13,3.1,3.1,94,0.04,,---,0.12,VWS V13.01,2013-02-12 15:24:00,
2013-02-12 09:29:00,48.4,46.7,29.29,NNE,13,3.1,3.1,94,0.04,,---,0.12,VWS V13.01,2013-02-12 15:29:00,
2013-02-12 09:34:00,48.4,46.7,29.29,NNE,13,3.1,3.1,94,0.04,,---,0.12,VWS V13.01,2013-02-12 15:34:00,
2013-02-12 09:39:00,48.4,46.7,29.35,NNE,13,3.1,3.1,94,0.04,,---,0.12,VWS V13.01,2013-02-12 15:39:00,
2013-02-12 09:44:00,48.4,46.7,29.35,NNE,13,3.1,3.1,94,0.04,,---,0.12,VWS V13.01,2013-02-12 15:44:00,
2013-02-12 09:49:00,48.4,46.7,29.35,NNE,13,3.1,3.1,94,0.04,,---,0.12,VWS V13.01,2013-02-12 15:49:00,
2013-02-12 09:54:00,48.4,46.7,29.35,NNE,13,3.1,3.1,94,0.04,,---,0.12,VWS V13.01,2013-02-12 15:54:00,
2013-02-12 09:59:00,48.4,46.7,29.35,NNE,13,3.1,3.1,94,0.04,,---,0.12,VWS V13.01,2013-02-12 15:59:00,
2013-02-12 10:04:00,48.4,46.7,29.35,NNE,13,3.1,3.1,94,0.04,,---,0.12,VWS V13.01,2013-02-12 16:04:00,
2013-02-12 10:09:00,48.4,46.7,29.35,NNE,13,3.1,3.1,94,0.04,,---,0.12,VWS V13.01,2013-02-12 16:09:00,
2013-02-12 10:14:00,48.4,46.7,29.35,NNE,13,3.1,3.1,94,0.04,,---,0.12,VWS V13.01,2013-02-12 16:14:00,
2013-02-12 10:19:00,48.4,46.7,29.35,NNE,13,3.1,3.1,94,0.04,,---,0.12,VWS V13.01,2013-02-12 16:19:00,
2013-02-12 10:24:00,48.4,46.7,29.35,NNE,13,3.1,3.1,94,0.00,,---,0.12,VWS V13.01,2013-02-12 16:24:00,
2013-02-12 10:29:00,48.4,46.7,29.35,NNE,13,3.1,3.1,94,0.00,,---,0.12,VWS V13.01,2013-02-12 16:29:00,
2013-02-12 10:34:00,48.4,46.7,29.35,NNE,13,3.1,3.1,94,0.00,,---,0.12,VWS V13.01,2013-02-12 16:34:00,
2013-02-12 10:39:00,48.4,46.7,29.35,NNE,13,3.1,3.1,94,0.00,,---,0.12,VWS V13.01,2013-02-12 16:39:00,
2013-02-12 10:44:00,48.4,46.7,29.35,NNE,13,3.1,3.1,94,0.00,,---,0.12,VWS V13.01,2013-02-12 16:44:00,
2013-02-12 10:49:00,48.4,46.7,29.35,NNE,13,3.1,3.1,94,0.00,,---,0.12,VWS V13.01,2013-02-12 16:49:00,
2013-02-12 10:54:00,48.4,46.7,29.35,NNE,13,3.1,3.1,94,0.00,,---,0.12,VWS V13.01,2013-02-12 16:54:00,
2013-02-12 10:59:00,48.4,46.7,29.35,NNE,13,3.1,3.1,94,0.00,,---,0.12,VWS V13.01,2013-02-12 16:59:00,
2013-02-12 11:04:00,48.4,46.7,29.35,NNE,13,3.1,3.1,94,0.00,,---,0.12,VWS V13.01,2013-02-12 17:04:00,
2013-02-12 11:09:00,48.4,46.7,29.35,NNE,13,3.1,3.1,94,0.00,,---,0.12,VWS V13.01,2013-02-12 17:09:00,
2013-02-12 11:14:00,48.4,46.7,29.35,NNE,13,3.1,3.1,94,0.00,,---,0.12,VWS V13.01,2013-02-12 17:14:00,
2013-02-12 11:19:00,48.4,46.7,29.35,NNE,13,3.1,3.1,94,0.00,,---,0.12,VWS V13.01,2013-02-12 17:19:00,
2013-02-12 11:24:00,48.4,46.7,29.35,NNE,13,3.1,3.1,94,0.00,,---,0.12,VWS V13.01,2013-02-12 17:24:00,
2013-02-12 11:29:00,48.4,46.7,29.35,NNE,13,3.1,3.1,94,0.04,,---,0.16,VWS V13.01,2013-02-12 17:29:00,
2013-02-12 11:34:00,48.4,46.7,29.35,NNE,13,3.1,3.1,94,0.04,,---,0.16,VWS V13.01,2013-02-12 17:34:00,
2013-02-12 11:39:00,48.4,46.7,29.35,NNE,13,3.1,3.1,94,0.04,,---,0.16,VWS V13.01,2013-02-12 17:39:00,
2013-02-12 11:44:00,48.4,46.7,29.35,NNE,13,3.1,3.1,94,0.04,,---,0.16,VWS V13.01,2013-02-12 17:44:00,
2013-02-12 11:49:00,48.4,46.7,29.35,NNE,13,3.1,3.1,94,0.04,,---,0.16,VWS V13.01,2013-02-12 17:49:00,
2013-02-12 11:54:00,49.6,47.1,29.35,NNE,13,3.1,3.1,91,0.04,,---,0.16,VWS V13.01,2013-02-12 17:54:00,
2013-02-12 11:59:00,49.6,47.1,29.35,NNE,13,3.1,3.1,91,0.04,,---,0.16,VWS V13.01,2013-02-12 17:59:00,
2013-02-12 12:04:00,49.5,46.7,29.35,NNE,13,3.1,3.1,90,0.04,,---,0.16,VWS V13.01,2013-02-12 18:04:00,
2013-02-12 12:09:00,49.5,46.7,29.35,NNE,13,3.1,3.1,90,0.04,,---,0.16,VWS V13.01,2013-02-12 18:09:00,
2013-02-12 12:14:00,49.5,46.7,29.35,NNE,13,3.1,3.1,90,0.04,,---,0.16,VWS V13.01,2013-02-12 18:14:00,
2013-02-12 12:19:00,49.6,46.8,29.35,NNE,13,3.1,3.1,90,0.04,,---,0.16,VWS V13.01,2013-02-12 18:19:00,
2013-02-12 12:24:00,49.6,46.8,29.35,NNE,13,3.1,3.1,90,0.04,,---,0.16,VWS V13.01,2013-02-12 18:24:00,
2013-02-12 12:29:00,49.6,46.8,29.35,NNE,13,3.1,3.1,90,0.04,,---,0.16,VWS V13.01,2013-02-12 18:29:00,
2013-02-12 12:34:00,49.6,46.8,29.35,NNE,13,3.1,3.1,90,0.00,,---,0.16,VWS V13.01,2013-02-12 18:34:00,
2013-02-12 12:39:00,49.6,46.5,29.35,NNE,13,3.1,3.1,89,0.00,,---,0.16,VWS V13.01,2013-02-12 18:39:00,
2013-02-12 12:44:00,49.8,46.7,29.35,NNE,13,3.1,3.1,89,0.00,,---,0.16,VWS V13.01,2013-02-12 18:44:00,
2013-02-12 12:49:00,49.8,46.7,29.35,NNE,13,3.1,3.1,89,0.00,,---,0.16,VWS V13.01,2013-02-12 18:49:00,
2013-02-12 12:54:00,49.8,46.1,29.35,NNE,13,3.1,3.1,87,0.00,,---,0.16,VWS V13.01,2013-02-12 18:54:00,
2013-02-12 12:59:00,49.8,46.1,29.35,NNE,13,3.1,3.1,87,0.00,,---,0.16,VWS V13.01,2013-02-12 18:59:00,
2013-02-12 13:04:00,49.8,45.8,29.35,NNE,13,3.1,3.1,86,0.00,,---,0.16,VWS V13.01,2013-02-12 19:04:00,
2013-02-12 13:09:00,49.8,45.8,29.35,NNE,13,3.1,3.1,86,0.00,,---,0.16,VWS V13.01,2013-02-12 19:09:00,
2013-02-12 13:13:00,49.8,45.8,29.35,NNE,13,3.1,3.1,86,0.00,,---,0.16,VWS V13.01,2013-02-12 19:13:00,
2013-02-12 13:19:00,50.0,46.0,29.35,NNE,13,3.1,3.1,86,0.00,,---,0.16,VWS V13.01,2013-02-12 19:19:00,
2013-02-12 13:23:00,50.0,46.0,29.35,NNE,13,3.1,3.1,86,0.00,,---,0.16,VWS V13.01,2013-02-12 19:23:00,
2013-02-12 13:28:00,50.2,46.2,29.35,NNE,13,3.1,3.1,86,0.00,,---,0.16,VWS V13.01,2013-02-12 19:28:00,
2013-02-12 13:33:00,50.0,45.7,29.35,NNE,13,3.1,3.1,85,0.00,,---,0.16,VWS V13.01,2013-02-12 19:33:00,
2013-02-12 13:38:00,50.2,45.8,29.35,NNE,13,3.1,3.1,85,0.00,,---,0.16,VWS V13.01,2013-02-12 19:38:00,
2013-02-12 13:43:00,50.4,46.0,29.35,NNE,13,3.1,3.1,85,0.00,,---,0.16,VWS V13.01,2013-02-12 19:43:00,
2013-02-12 13:48:00,50.4,46.0,29.35,NNE,13,3.1,3.1,85,0.00,,---,0.16,VWS V13.01,2013-02-12 19:48:00,
2013-02-12 13:53:00,50.4,46.0,29.35,NNE,13,3.1,3.1,85,0.00,,---,0.16,VWS V13.01,2013-02-12 19:53:00,
2013-02-12 13:58:00,50.4,46.0,29.35,NNE,13,3.1,3.1,85,0.00,,---,0.16,VWS V13.01,2013-02-12 19:58:00,
2013-02-12 14:03:00,50.4,46.0,29.35,NNE,13,3.1,3.1,85,0.00,,---,0.16,VWS V13.01,2013-02-12 20:03:00,
2013-02-12 14:08:00,50.4,46.0,29.35,NNE,13,3.1,3.1,85,0.00,,---,0.16,VWS V13.01,2013-02-12 20:08:00,
2013-02-12 14:13:00,50.5,46.2,29.35,NNE,13,3.1,3.1,85,0.00,,---,0.16,VWS V13.01,2013-02-12 20:13:00,
2013-02-12 14:18:00,50.5,45.9,29.35,NNE,13,3.1,3.1,84,0.00,,---,0.16,VWS V13.01,2013-02-12 20:18:00,
2013-02-12 14:23:00,50.5,45.9,29.35,NNE,13,3.1,3.1,84,0.00,,---,0.16,VWS V13.01,2013-02-12 20:23:00,
2013-02-12 14:28:00,50.4,45.4,29.35,NNE,13,3.1,3.1,83,0.00,,---,0.16,VWS V13.01,2013-02-12 20:28:00,
2013-02-12 14:33:00,50.4,45.4,29.35,NNE,13,3.1,3.1,83,0.00,,---,0.16,VWS V13.01,2013-02-12 20:33:00,
2013-02-12 14:38:00,50.7,46.1,29.35,NNE,13,3.1,3.1,84,0.00,,---,0.16,VWS V13.01,2013-02-12 20:38:00,
2013-02-12 14:43:00,50.7,46.1,29.35,NNE,13,3.1,3.1,84,0.00,,---,0.16,VWS V13.01,2013-02-12 20:43:00,
2013-02-12 14:48:00,50.7,46.1,29.35,NNE,13,3.1,3.1,84,0.00,,---,0.16,VWS V13.01,2013-02-12 20:48:00,
2013-02-12 14:53:00,50.9,45.9,29.35,NNE,13,3.1,3.1,83,0.00,,---,0.16,VWS V13.01,2013-02-12 20:53:00,
2013-02-12 14:58:00,50.9,45.9,29.35,NNE,13,3.1,3.1,83,0.00,,---,0.16,VWS V13.01,2013-02-12 20:58:00,
2013-02-12 15:03:00,50.9,45.9,29.26,NNE,13,3.1,3.1,83,0.00,,---,0.16,VWS V13.01,2013-02-12 21:03:00,
2013-02-12 15:08:00,50.9,45.6,29.26,North,5,0.0,0.0,82,0.00,,---,0.16,VWS V13.01,2013-02-12 21:08:00,
2013-02-12 15:13:00,50.9,45.6,29.26,North,5,0.0,0.0,82,0.00,,---,0.16,VWS V13.01,2013-02-12 21:13:00,
2013-02-12 15:18:00,50.9,45.9,29.26,WNW,290,0.0,0.0,83,0.00,,---,0.16,VWS V13.01,2013-02-12 21:18:00,
2013-02-12 15:23:00,50.9,45.9,29.26,WNW,290,0.0,0.0,83,0.00,,---,0.16,VWS V13.01,2013-02-12 21:23:00,
2013-02-12 15:28:00,50.9,45.9,29.26,WNW,290,0.0,0.0,83,0.00,,---,0.16,VWS V13.01,2013-02-12 21:28:00,
2013-02-12 15:33:00,50.9,45.9,29.26,WNW,290,0.0,0.0,83,0.00,,---,0.16,VWS V13.01,2013-02-12 21:33:00,
2013-02-12 15:38:00,50.9,45.9,29.26,WNW,290,0.0,0.0,83,0.00,,---,0.16,VWS V13.01,2013-02-12 21:38:00,
2013-02-12 15:43:00,50.9,45.9,29.26,WNW,290,0.0,0.0,83,0.00,,---,0.16,VWS V13.01,2013-02-12 21:43:00,
2013-02-12 15:48:00,50.9,45.9,29.26,WNW,290,0.0,0.0,83,0.00,,---,0.16,VWS V13.01,2013-02-12 21:48:00,
2013-02-12 15:53:00,50.5,45.6,29.26,WNW,290,0.0,0.0,83,0.00,,---,0.16,VWS V13.01,2013-02-12 21:53:00,
2013-02-12 15:58:00,50.5,45.6,29.26,WNW,290,0.0,0.0,83,0.00,,---,0.16,VWS V13.01,2013-02-12 21:58:00,
2013-02-12 16:03:00,50.5,45.6,29.26,WNW,290,0.0,0.0,83,0.00,,---,0.16,VWS V13.01,2013-02-12 22:03:00,
2013-02-12 16:08:00,50.5,45.6,29.26,WNW,290,0.0,0.0,83,0.00,,---,0.16,VWS V13.01,2013-02-12 22:08:00,
2013-02-12 16:13:00,50.5,45.6,29.26,WNW,290,0.0,0.0,83,0.00,,---,0.16,VWS V13.01,2013-02-12 22:13:00,
2013-02-12 16:18:00,50.5,45.6,29.26,WNW,294,3.6,3.6,83,0.00,,---,0.16,VWS V13.01,2013-02-12 22:18:00,
2013-02-12 16:23:00,50.5,45.6,29.26,WNW,297,4.5,4.5,83,0.00,,---,0.16,VWS V13.01,2013-02-12 22:23:00,
2013-02-12 16:28:00,50.5,45.6,29.29,WNW,296,5.8,5.8,83,0.00,,---,0.16,VWS V13.01,2013-02-12 22:28:00,
2013-02-12 16:33:00,50.2,46.5,29.29,WNW,291,3.1,3.1,87,0.00,,---,0.16,VWS V13.01,2013-02-12 22:33:00,
2013-02-12 16:38:00,50.2,46.5,29.29,West,273,4.5,4.5,87,0.00,,---,0.16,VWS V13.01,2013-02-12 22:38:00,
2013-02-12 16:43:00,50.2,46.5,29.29,WNW,294,5.8,5.8,87,0.00,,---,0.16,VWS V13.01,2013-02-12 22:43:00,
2013-02-12 16:48:00,50.2,46.5,29.29,WNW,294,5.8,5.8,87,0.00,,---,0.16,VWS V13.01,2013-02-12 22:48:00,
2013-02-12 16:53:00,50.2,46.5,29.29,WNW,295,0.0,0.0,87,0.00,,---,0.16,VWS V13.01,2013-02-12 22:53:00,
2013-02-12 16:58:00,50.2,46.5,29.29,WNW,295,0.0,0.0,87,0.00,,---,0.16,VWS V13.01,2013-02-12 22:58:00,
2013-02-12 17:03:00,50.2,46.5,29.29,WNW,289,5.4,5.4,87,0.00,,---,0.16,VWS V13.01,2013-02-12 23:03:00,
2013-02-12 17:08:00,50.2,47.1,29.29,WNW,289,5.4,5.4,89,0.00,,---,0.16,VWS V13.01,2013-02-12 23:08:00,
2013-02-12 17:13:00,50.2,47.1,29.29,NW,313,3.1,3.1,89,0.00,,---,0.16,VWS V13.01,2013-02-12 23:13:00,
2013-02-12 17:18:00,50.2,47.1,29.29,NW,313,3.1,3.1,89,0.00,,---,0.16,VWS V13.01,2013-02-12 23:18:00,
2013-02-12 17:23:00,50.2,47.1,29.29,WNW,290,4.9,4.9,89,0.00,,---,0.16,VWS V13.01,2013-02-12 23:23:00,
2013-02-12 17:28:00,50.2,47.1,29.29,WNW,290,4.9,4.9,89,0.00,,---,0.16,VWS V13.01,2013-02-12 23:28:00,
2013-02-12 17:33:00,50.2,47.1,29.29,West,280,3.6,3.6,89,0.00,,---,0.16,VWS V13.01,2013-02-12 23:33:00,